User: anonymous   Login
Location: Kielce
(50.8833°N, 20.6167°E)
Time: 14:29:13
(UTC+02:00)
Language:

Transit 2A Rocket - Orbit

View from above orbital plane
View from above orbital plane
View from above satellite
View from above satellite

Ground track
Ground track

The orbit data is extracted from the following two-line orbital elements,

1    47U 60007C   21108.01974203  .00000005  00000-0  26201-4 0  9992
2    47  66.6667  60.6020 0219966  80.0609 282.5244 14.42143588179048
Epoch (UTC): 18 April 2021 00:28:25
Eccentricity: 0.0219966
inclination: 66.6667°
perigee height: 594 km
apogee height: 908 km
right ascension of ascending node: 60.6020°
argument of perigee: 80.0609°
revolutions per day: 14.42143588
mean anomaly at epoch: 282.5244°
orbit number at epoch: 17904

The dashed part of the orbit path shows where the satellite is in the earth's shadow,  

DLR